Location: Boleita
(10.4833°N, 66.8167°W)
Time: 02:13:42
(UTC+00:00)

Delta 7925 Rocket - Pass Details

Date: 08 November 2025
Orbit: 645 x 1641 km, 26.3° (Epoch: 09 December)

Event Time Altitude Azimuth Distance (km) Brightness Sun altitude
Rises 00:01:44 0° 234° (SW) 3,474 7.9 -29.3°
Reaches altitude 10° 00:04:06 10° 230° (SW) 2,658 7.0 -29.9°
Enters shadow 00:10:16 61° 160° (SSE) 1,259 4.4 -31.4°
